Regional Weather Roundup
Issued by NWS

Home | Current Version | Previous Version | Text Only | Print | Product List | Glossary Off
Versions: 1 2 3 4 5 6 7 8 9 10 11 12 13 14 15 16 17 18 19 20 21 22 23 24 25 26 27 28 29 30 31 32 33 34 35 36 37 38 39 40 41 42 43 44 45 46 47 48 49 50

000
ASUS43 KMKX 022110
RWRWI

WISCONSIN REGIONAL WEATHER ROUNDUP
NATIONAL WEATHER SERVICE MILWAUKEE/SULLIVAN WI
300 PM CST MON MAR 02 2015

NOTE: "FAIR" INDICATES FEW OR NO CLOUDS BELOW 12,000 FEET WITH NO
SIGNIFICANT WEATHER AND/OR OBSTRUCTIONS TO VISIBILITY.

WIZ001-002-006>008-014>016-023>028-022200-
NORTHWEST WISCONSIN

CITY           SKY/WX    TMP DP  RH WIND       PRES   REMARKS
SUPERIOR ARPT  SUNNY     29   7  39 SW10      30.27F WCI  20
ASHLAND        SUNNY     28   4  35 SW6       30.29F WCI  22
HAYWARD        SUNNY     24   3  40 S10       30.29F WCI  14
SIREN          SUNNY     27   4  37 SW9       30.29F WCI  18
CUMBERLAND     SUNNY     23   5  46 SW8       30.30F WCI  14
RICE LAKE      SUNNY     25   6  44 S6        30.33F WCI  18
CHETEK         SUNNY     25   4  41 S9        30.33F WCI  15
LADYSMITH      SUNNY     26   6  42 S8        30.32F WCI  17
EAU CLAIRE     SUNNY     26   5  40 SW8       30.34F WCI  18
MENOMONIE      SUNNY     27   8  44 SE9       30.34F WCI  17
NEW RICHMOND   SUNNY     26   8  47 S9G16     30.33F WCI  16
OSCEOLA        SUNNY     27   6  41 S10       30.35F WCI  18
$$

WIZ003>005-009-010-017-018-022200-
NORTH CENTRAL WISCONSIN

CITY           SKY/WX    TMP DP  RH WIND       PRES   REMARKS
MANITOWISH WTR SUNNY     25   1  35 SW8       30.25F WCI  16
ARBOR VITAE    SUNNY     26   1  34 SW3       30.25F
WOODRUFF       SUNNY     26   1  34 SW3       30.25F
RHINELANDER    SUNNY     25   3  38 SW6       30.28F WCI  18
EAGLE RIVER    SUNNY     25  -1  33 SW9       30.26F WCI  15
LAND O LAKES   SUNNY     27  -1  30 W5        30.25F WCI  22
PHILLIPS       SUNNY     24   1  38 SW6       30.27F WCI  17
TOMAHAWK       SUNNY     26  -2  29 CALM      30.29F
MEDFORD        SUNNY     21   5  51 S8        30.30F WCI  11
MERRILL        SUNNY     26   6  43 SW8       30.32F WCI  17
$$

WIZ029-030-035-036-043>047-022200-
CENTRAL WISCONSIN

CITY           SKY/WX    TMP DP  RH WIND       PRES   REMARKS
WAUSAU         SUNNY     22   3  44 CALM      30.33F
MOSINEE        SUNNY     23   7  50 SW5       30.36F WCI  17
MARSHFIELD     SUNNY     25   4  40 CALM      30.34F
STEVENS POINT  SUNNY     24   3  42 CALM      30.35F
WAUPACA        SUNNY     32   4  30 S6        30.39F WCI  26
WAUTOMA        FAIR      28   3  34 CALM      30.38F
WISC RAPIDS    SUNNY     26   1  34 SW7       30.37F WCI  18
CAMP DOUGLAS   PTSUNNY   28   5  37 SE5       30.37F WCI  23
$$

WIZ011>013-019>022-031-037>040-048>050-022200-
NORTHEAST WISCONSIN

CITY           SKY/WX    TMP DP  RH WIND       PRES   REMARKS
ANTIGO         SUNNY     22   7  52 SW6       30.31F WCI  15
SHAWANO        SUNNY     30   5  35 SW7       30.38F WCI  23
OCONTO         SUNNY     28   7  42 S8        30.39F WCI  20
STURGEON BAY   SUNNY     25   7  46 SW10      30.41F WCI  15
GREEN BAY      SUNNY     27  12  53 S9        30.40F WCI  18
MANITOWOC      SUNNY     31  12  45 W7        30.41F WCI  24
APPLETON       MOSUNNY   27   5  39 SW6       30.39F WCI  20
CLINTONVILLE   SUNNY     28   9  43 SW8       30.38F WCI  20
OSHKOSH        SUNNY     26  10  50 S6        30.40F WCI  19
$$

WIZ032>034-041-042-053>061-022200-
SOUTHWEST WISCONSIN

CITY           SKY/WX    TMP DP  RH WIND       PRES   REMARKS
LA CROSSE      MOSUNNY   27   9  46 S7        30.38F WCI  19
SPARTA         MOSUNNY   28   1  31 CALM      30.38F
VIROQUA        MOSUNNY   26   8  47 S6        30.34F WCI  19
BOSCOBEL       PTSUNNY   28  12  51 S8        30.41F WCI  20
PRAIRIE DU CHI PTSUNNY   27  10  49 SW6       30.40F WCI  21
PLATTEVILLE    PTSUNNY   24  13  63 NE5       30.39F WCI  18
$$

WIZ056-057-062-063-064-067-068-022200-
SOUTH CENTRAL WISCONSIN

CITY           SKY/WX    TMP DP  RH WIND       PRES   REMARKS
REEDSBURG      MOSUNNY   26   7  45 CALM      30.38F
BARABOO/DELLS  MOSUNNY   26   5  40 CALM      30.37F
LONE ROCK      PTSUNNY   28   9  44 CALM      30.40F
MINERAL POINT  PTSUNNY   27  10  50 S5        30.38F WCI  21
MADISON        PTSUNNY   27   8  44 SE7       30.41F WCI  19
MIDDLETON      MOSUNNY   30   7  37 S5        30.40S WCI  26
WATERTOWN      MOSUNNY   26  10  50 CALM      30.41S
MONROE         MOSUNNY   27  14  59 S3        30.39F
JANESVILLE     SUNNY     28  10  47 W5        30.42F WCI  23
$$

WIZ051-052-058>065-066-070>072-022200-
SOUTHEAST WISCONSIN

CITY           SKY/WX    TMP DP  RH WIND       PRES   REMARKS
MILWAUKEE      PTSUNNY   26  13  57 SE12      30.42F WCI  16
WAUKESHA       PTSUNNY   27   5  39 W3        30.41F
MILWAUKEE/TIMM SUNNY     28   3  34 CALM      30.43F
RACINE         MOSUNNY   26  10  50 SW8       30.44F WCI  18
BURLINGTON     SUNNY     26   8  44 W3        30.42S
KENOSHA        MOSUNNY   27  12  53 CALM      30.43F
FOND DU LAC    SUNNY     27  10  49 W7        30.41F WCI  19
SHEBOYGAN      SUNNY     28   9  44 SW7       30.41F WCI  21
WEST BEND      MOSUNNY   28   9  43 CALM      30.40F
JUNEAU         MOSUNNY   26   8  47 SW6       30.41F WCI  19
$$

LSZ147-162-022200-
LAKE SUPERIOR

STATION/POSITION TIME  TEMP    WIND        PRES    WAVE
                       AIR SEA DIR/SP/G            HT/PER
                 (UTC) (F)     (DEG/KT/KT) (MB)    (FT/S)
DEVILS ISLAND    2100   25     240/  6/  8 1026.4F
PORT WING        2000   25     280/ 10/ 12 1026.1
SAXON HARBOR     2020   28     220/  6/ 16 1026.4F
$$

LMZ867-665-643>646-022200-
LAKE MICHIGAN

STATION/POSITION TIME  TEMP    WIND        PRES    WAVE
                       AIR SEA DIR/SP/G            HT/PER
                 (UTC) (F)     (DEG/KT/KT) (MB)    (FT/S)
NORTHPORT PIER   2000   27     220/  6/  9 1029.1F
SISTER BAY       2028   33     210/ 12/ 14   N/A
KEWAUNEE LAKESHO 2000   26     170/ 10/ 12 1029.4F
SHEBOYGAN LAKESH 2100   24     160/ 13/ 15 1031.3F
PORT WASHINGTON  2040   27     150/  8/  9 1030.8F
MILWAUKEE LAKESH 2000   24     120/ 10/ 11   N/A
KENOSHA   LAKESH 2100   28     140/  7/  9 1030.5F
$$

TC  - TEMPERATURE IN CELSIUS
VSB - VISIBILITY IN STATUTE MILES
WCI - WIND CHILL INDEX
HX  - HEAT INDEX




USA.gov is the U.S. government's official web portal to all federal, state and local government web resources and services.